Simultaneous Nadir Overpasses (SNOs) Predictions

Prediction of SNOs between METOP-B and NOAA-19 Satellite Orbit:

Table of predicted SNOs for the next 14.0 days since TLE Epoch: 1/15/2022
Index Date (METOP-B) Time (METOP-B) Lat,Lon (METOP-B) SZA (METOP-B ) Date (NOAA-19) Time (NOAA-19) Lat,Lon (NOAA-19) SZA (NOAA-19 ) Distance(km) Time Diff (sec)
1 01/20/2022 03:34:23 -80.75, -22.00 78.07 01/20/2022 03:33:08 -80.75, -22.14 78.10 2.63 75
2 01/20/2022 04:25:04 80.74, 145.18 101.91 01/20/2022 04:24:10 80.75, 145.20 101.91 1.22 54
3 01/20/2022 05:15:45 -80.74, -47.50 78.10 01/20/2022 05:15:08 -80.75, -47.60 78.11 2.34 37
4 01/20/2022 06:06:25 80.75, 120.03 101.92 01/20/2022 06:06:09 80.74, 120.12 101.91 2.01 16
5 01/20/2022 06:57:06 -80.75, -72.65 78.10 01/20/2022 06:57:07 -80.74, -72.69 78.11 1.27 1
6 01/20/2022 07:47:47 80.74, 94.53 101.88 01/20/2022 07:48:09 80.74, 94.67 101.90 2.42 22
7 01/20/2022 08:38:28 -80.74, -98.15 78.13 01/20/2022 08:39:07 -80.74, -98.15 78.12 0.08 39
8 01/20/2022 09:29:09 80.73, 69.03 101.85 01/20/2022 09:30:09 80.74, 69.21 101.88 3.32 60



Historial Predications of SNOs between METOP-B and NOAA-19
